Capo Bellavista, Italy

5:56 AM CET on February 08, 2016 (GMT +0100)
Capo Bellavista

Weather History for LIEB - May, 2013

Change the Weather History Date:

Sunday, May 26, 2013

  Actual Average (LIED) Record (LIED)
Temperature  
Mean Temperature 64 °F -  
Max Temperature 72 °F 76 °F 87 °F (2011)
Min Temperature 55 °F 63 °F 51 °F (2013)
Degree Days  
Heating Degree Days 2    
Growing Degree Days 14 (Base 50)    
Moisture  
Dew Point 46 °F    
Average Humidity 55    
Maximum Humidity 77    
Minimum Humidity 39    
Precipitation  
Precipitation 0.00 in 0.02 in - ()
Sea Level Pressure  
Sea Level Pressure 29.98 in    
Wind  
Wind Speed 10 mph ()    
Max Wind Speed 29 mph    
Max Gust Speed 40 mph    
Visibility 12.0 miles    
Events      
Averages and records for this station are not official NWS values.
T = Trace of Precipitation, MM = Missing Value Source: Averaged Metar Reports

Daily Weather History Graph

Daily Weather History Graph

Search for Another Location

Airport or City:

Trip Planner

Search our weather history database for the weather conditions in past years. The results will help you decide how hot, cold, wet, or windy it might be!

Date:

Astronomy

May. 26, 2013 Rise Set
Actual Time 5:57 AM CEST 8:39 PM CEST
Civil Twilight 5:26 AM CEST 9:10 PM CEST
Nautical Twilight 4:46 AM CEST 9:50 PM CEST
Astronomical Twilight 4:01 AM CEST 10:35 PM CEST
Moon 10:10 PM CEST (5/26) 7:08 AM CEST (5/26)
Length of Visible Light 15h 44m
Length of Day
14h 41m
Full, 98% of the Moon is Illuminated
May 26
Full
May 31
Last Quarter
Jun 8
New
Jun 16
First Quarter
Jun 23
Full

Hourly Weather History & Observations

Time (CEST) Temp. Dew Point Humidity Pressure Visibility Wind Dir Wind Speed Gust Speed Precip Events Conditions
1:55 AM 57.2 °F 41.0 °F 55% 29.95 in - WNW 8.1 mph - N/A   Clear
2:00 AM 56 °F 41 °F 45% 29.97 in 12 mi WNW 8.1 mph - -   Partly Cloudy
2:55 AM 57.2 °F 41.0 °F 55% 29.95 in - West 8.1 mph - N/A   Clear
3:55 AM 57.2 °F 42.8 °F 59% 29.95 in - WNW 9.2 mph - N/A   Clear
4:55 AM 57.2 °F 41.0 °F 55% 29.95 in - NW 15.0 mph 27.6 mph N/A   Clear
5:55 AM 57.2 °F 41.0 °F 55% 29.95 in - NW 13.8 mph - N/A   Clear
6:55 AM 55.4 °F 41.0 °F 58% 29.95 in - NW 6.9 mph - N/A   Clear
7:55 AM 55.4 °F 41.0 °F 58% 29.95 in - NW 13.8 mph - N/A   Clear
8:00 AM 56 °F 42 °F 47% 29.97 in 12 mi NW 13.8 mph - -   Scattered Clouds
8:55 AM 57.2 °F 41.0 °F 55% 29.95 in - NW 15.0 mph - N/A   Clear
9:55 AM 59.0 °F 41.0 °F 51% 29.95 in - WNW 28.8 mph 40.3 mph N/A   Clear
10:55 AM 68.0 °F 44.6 °F 43% 29.98 in - NNE 12.7 mph - N/A   Clear
11:55 AM 71.6 °F 46.4 °F 41% 29.98 in - ESE 16.1 mph - N/A   Clear
12:55 PM 69.8 °F 48.2 °F 46% 29.98 in - ESE 16.1 mph - N/A   Clear
1:55 PM 69.8 °F 50.0 °F 49% 30.01 in - ESE 16.1 mph - N/A   Clear
2:00 PM 69 °F 50 °F 39% 29.99 in 12 mi ESE 16.1 mph - -  
2:55 PM 69.8 °F 51.8 °F 53% 30.01 in - ESE 15.0 mph - N/A   Clear
3:55 PM 68.0 °F 51.8 °F 56% 30.01 in - ESE 11.5 mph - N/A   Clear
4:55 PM 68.0 °F 53.6 °F 60% 30.01 in - ESE 11.5 mph - N/A   Clear
5:55 PM 66.2 °F 55.4 °F 68% 30.01 in - SE 5.8 mph - N/A   Clear
6:55 PM 64.4 °F 57.2 °F 77% 30.01 in - South 3.5 mph - N/A   Clear
7:55 PM 64.4 °F 55.4 °F 73% 29.98 in - SSE 3.5 mph - N/A   Clear
8:00 PM 64 °F 55 °F 65% 30.00 in 12 mi SSE 3.5 mph - -  
8:55 PM 62.6 °F 46.4 °F 55% 30.01 in - East 2.3 mph - N/A   Clear
9:55 PM 60.8 °F 41.0 °F 48% 29.98 in - West 2.3 mph - N/A   Clear
10:55 PM 59.0 °F 46.4 °F 63% 30.01 in - West 9.2 mph - N/A   Clear
11:55 PM 59.0 °F 41.0 °F 51% 30.01 in - WNW 9.2 mph - N/A   Clear